CW4206 Weather Reports


Display with metric or nautical units.
time (UTC)temp
F
wind
direction
speed
MPH
gust
MPH
rain 1hr
in
rain 24hr
in
rain mn
in
humidity
%
barometer
mb
20260510174031 85 236 0.0 4.0 0.00 0.00 0.00 32 1014.1
20260510173534 85 160 1.0 4.0 0.00 0.00 0.00 33 1014.1
20260510173046 85 47 0.0 2.0 0.00 0.00 0.00 31 1014.2
20260510172532 85 0 0.0 2.0 0.00 0.00 0.00 34 1014.2
20260510172033 85 0 0.0 3.0 0.00 0.00 0.00 39 1014.3
20260510171557 85 0 1.0 3.0 0.00 0.00 0.00 32 1014.2
20260510171033 84 0 0.0 4.0 0.00 0.00 0.00 35 1014.4
20260510170531 84 0 0.0 4.0 0.00 0.00 0.00 36 1014.4
20260510170050 84 0 1.0 4.0 0.00 0.00 0.00 32 1014.3
20260510165531 84 0 1.0 4.0 0.00 0.00 0.00 36 1014.4
20260510165032 84 275 0.0 4.0 0.00 0.00 0.00 37 1014.4
20260510164542 84 231 0.0 4.0 0.00 0.00 0.00 35 1014.4
20260510164033 83 0 0.0 3.0 0.00 0.00 0.00 33 1014.6
20260510163533 83 0 0.0 3.0 0.00 0.00 0.00 35 1014.6
20260510163057 83 0 0.0 3.0 0.00 0.00 0.00 37 1014.6
20260510162529 83 0 0.0 2.0 0.00 0.00 0.00 36 1014.6
20260510162031 83 0 0.0 3.0 0.00 0.00 0.00 38 1014.6
20260510161546 82 0 0.0 3.0 0.00 0.00 0.00 37 1014.6
20260510161032 82 0 0.0 3.0 0.00 0.00 0.00 40 1014.6
20260510160533 82 0 0.0 2.0 0.00 0.00 0.00 42 1014.6
20260510160044 82 0 0.0 2.0 0.00 0.00 0.00 39 1014.6
20260510155533 81 0 0.0 2.0 0.00 0.00 0.00 39 1014.7
20260510155032 81 0 0.0 2.0 0.00 0.00 0.00 41 1014.9
20260510154547 80 257 0.0 1.0 0.00 0.00 0.00 45 1015.0
20260510154033 80 0 0.0 2.0 0.00 0.00 0.00 46 1015.0
20260510153534 79 0 0.0 3.0 0.00 0.00 0.00 49 1015.0
20260510153046 79 0 0.0 3.0 0.00 0.00 0.00 45 1015.1
20260510152530 79 142 0.0 3.0 0.00 0.00 0.00 47 1015.1
20260510152033 79 49 0.0 3.0 0.00 0.00 0.00 53 1015.1
20260510151545 79 138 0.0 3.0 0.00 0.00 0.00 51 1015.0
20260510151029 78 0 0.0 3.0 0.00 0.00 0.00 53 1015.0
20260510150530 77 263 0.0 3.0 0.00 0.00 0.00 47 1015.1
20260510150050 77 57 0.0 2.0 0.00 0.00 0.00 49 1015.0
20260510145529 76 0 0.0 2.0 0.00 0.00 0.00 50 1015.1
20260510145032 76 57 0.0 2.0 0.00 0.00 0.00 55 1015.0
20260510144556 75 57 0.0 1.0 0.00 0.00 0.00 59 1015.0
20260510144030 75 0 0.0 1.0 0.00 0.00 0.00 55 1014.7
20260510143533 74 0 0.0 1.0 0.00 0.00 0.00 56 1014.8
20260510143043 74 0 0.0 2.0 0.00 0.00 0.00 63 1014.9
20260510142532 74 0 0.0 2.0 0.00 0.00 0.00 65 1014.8
20260510142033 73 0 0.0 2.0 0.00 0.00 0.00 67 1014.7
20260510141546 73 0 0.0 1.0 0.00 0.00 0.00 67 1014.7
20260510141034 73 0 0.0 1.0 0.00 0.00 0.00 64 1014.7
20260510140533 72 131 0.0 1.0 0.00 0.00 0.00 67 1014.7
20260510140047 72 131 0.0 1.0 0.00 0.00 0.00 69 1014.7
20260510135533 71 0 0.0 1.0 0.00 0.00 0.00 73 1014.8
20260510135033 70 244 0.0 2.0 0.00 0.00 0.00 74 1014.9
20260510134544 70 0 0.0 2.0 0.00 0.00 0.00 77 1014.9
20260510134031 69 266 0.0 2.0 0.00 0.00 0.00 78 1014.9
20260510133531 68 266 0.0 2.0 0.00 0.00 0.00 81 1014.6
20260510133049 67 0 0.0 1.0 0.00 0.00 0.00 83 1014.8
20260510132530 67 227 0.0 1.0 0.00 0.00 0.00 88 1014.9
20260510132158 66 227 0.0 1.0 0.00 0.00 0.00 89 1014.8
20260510131545 65 0 0.0 1.0 0.00 0.00 0.00 90 1014.7
20260510131032 64 0 0.0 1.0 0.00 0.00 0.00 94 1014.7
20260510130530 64 0 0.0 1.0 0.00 0.00 0.00 95 1014.6
20260510130048 63 0 0.0 1.0 0.00 0.00 0.00 98 1014.5
20260510125532 63 0 0.0 1.0 0.00 0.00 0.00 99 1014.6
20260510125033 62 0 0.0 1.0 0.00 0.00 0.00 99 1014.5
20260510124542 62 0 0.0 0.0 0.00 0.00 0.00 100 1014.4
20260510124032 61 0 0.0 0.0 0.00 0.00 0.00 100 1014.4
20260510123532 60 0 0.0 0.0 0.00 0.00 0.00 100 1014.4
20260510123042 60 0 0.0 0.0 0.00 0.00 0.00 99 1014.4
20260510122531 59 0 0.0 0.0 0.00 0.00 0.00 99 1014.5
20260510122032 58 0 0.0 0.0 0.00 0.00 0.00 99 1014.5
20260510121547 58 0 0.0 0.0 0.00 0.00 0.00 99 1014.5
20260510121032 57 0 0.0 0.0 0.00 0.00 0.00 99 1014.4
20260510120534 57 0 0.0 0.0 0.00 0.00 0.00 98 1014.4
20260510120043 56 0 0.0 0.0 0.00 0.00 0.00 98 1014.4
20260510115550 56 0 0.0 0.0 0.00 0.00 0.00 98 1014.3
20260510115031 56 0 0.0 0.0 0.00 0.00 0.00 98 1014.3
20260510114558 56 0 0.0 0.0 0.00 0.00 0.00 98 1014.1
20260510114032 55 0 0.0 0.0 0.00 0.00 0.00 98 1014.1
20260510113531 55 0 0.0 0.0 0.00 0.00 0.00 97 1014.0
20260510113051 55 0 0.0 0.0 0.00 0.00 0.00 98 1013.9
20260510112531 55 0 0.0 0.0 0.00 0.00 0.00 98 1013.9
20260510112034 55 0 0.0 0.0 0.00 0.00 0.00 97 1013.8
20260510111545 55 0 0.0 0.0 0.00 0.00 0.00 97 1013.6
20260510111032 55 0 0.0 0.0 0.00 0.00 0.00 97 1013.7
20260510110532 55 0 0.0 0.0 0.00 0.00 0.00 97 1013.5
20260510110051 55 0 0.0 0.0 0.00 0.00 0.00 97 1013.5
20260510105533 55 0 0.0 0.0 0.00 0.00 0.00 97 1013.5
20260510105033 55 0 0.0 0.0 0.00 0.00 0.00 96 1013.3
20260510104547 55 0 0.0 0.0 0.00 0.00 0.00 97 1013.2
20260510104032 55 0 0.0 0.0 0.00 0.00 0.00 97 1013.1
20260510103532 55 0 0.0 0.0 0.00 0.00 0.00 97 1013.1
20260510103052 55 0 0.0 0.0 0.00 0.00 0.00 97 1013.0
20260510102532 55 0 0.0 0.0 0.00 0.00 0.00 97 1013.0
20260510102033 55 0 0.0 0.0 0.00 0.00 0.00 97 1012.9
20260510101558 55 0 0.0 0.0 0.00 0.00 0.00 97 1012.9
20260510101032 55 0 0.0 0.0 0.00 0.00 0.00 97 1012.9
20260510100530 55 0 0.0 0.0 0.00 0.00 0.00 96 1013.0
20260510100050 55 0 0.0 0.0 0.00 0.00 0.00 96 1012.8
20260510095532 55 0 0.0 0.0 0.00 0.00 0.00 96 1012.8
20260510095035 55 0 0.0 0.0 0.00 0.00 0.00 96 1012.7
20260510094554 55 0 0.0 0.0 0.00 0.00 0.00 96 1012.8
20260510094028 55 0 0.0 0.0 0.00 0.00 0.00 96 1012.8
20260510093532 55 0 0.0 0.0 0.00 0.00 0.00 96 1012.6
20260510093050 55 0 0.0 0.0 0.00 0.00 0.00 96 1012.5
20260510092530 55 0 0.0 0.0 0.00 0.00 0.00 96 1012.4
20260510092032 56 0 0.0 0.0 0.00 0.00 0.00 96 1012.5
20260510091548 56 0 0.0 0.0 0.00 0.00 0.00 96 1012.4
20260510091033 56 0 0.0 0.0 0.00 0.00 0.00 96 1012.4
20260510090532 56 0 0.0 0.0 0.00 0.00 0.00 96 1012.3
20260510090045 56 0 0.0 0.0 0.00 0.00 0.00 96 1012.2
20260510085532 56 0 0.0 0.0 0.00 0.00 0.00 96 1012.3
20260510085030 56 0 0.0 0.0 0.00 0.00 0.00 96 1012.3
20260510084549 57 0 0.0 0.0 0.00 0.00 0.00 96 1012.2
20260510084031 57 0 0.0 0.0 0.00 0.00 0.00 96 1012.1
20260510083531 57 0 0.0 0.0 0.00 0.00 0.00 96 1012.0
20260510083053 57 0 0.0 0.0 0.00 0.00 0.00 96 1011.9
20260510082531 57 0 0.0 0.0 0.00 0.00 0.00 97 1011.8
20260510082029 57 0 0.0 0.0 0.00 0.00 0.00 97 1011.8
20260510081551 57 0 0.0 0.0 0.00 0.00 0.00 97 1011.8
20260510081030 57 0 0.0 0.0 0.00 0.00 0.00 97 1011.8
20260510080529 57 0 0.0 0.0 0.00 0.00 0.00 96 1011.7
20260510080055 57 0 0.0 0.0 0.00 0.00 0.00 96 1011.6
20260510075529 57 0 0.0 0.0 0.00 0.00 0.00 96 1011.6
20260510075029 58 0 0.0 0.0 0.00 0.00 0.00 96 1011.6
20260510074550 58 0 0.0 0.0 0.00 0.00 0.00 96 1011.7
20260510074031 58 0 0.0 0.0 0.00 0.00 0.00 96 1011.6
20260510073529 58 0 0.0 0.0 0.00 0.00 0.00 96 1011.7
20260510073055 58 0 0.0 0.0 0.00 0.00 0.00 96 1011.6
20260510072530 58 0 0.0 0.0 0.00 0.00 0.00 97 1011.5
20260510072030 58 0 0.0 0.0 0.00 0.00 0.00 97 1011.5
20260510071549 58 0 0.0 0.0 0.00 0.00 0.00 97 1011.5
20260510071029 58 0 0.0 0.0 0.00 0.00 0.00 97 1011.4
20260510070530 58 0 0.0 0.0 0.00 0.00 0.00 96 1011.3
20260510065533 58 0 0.0 0.0 0.00 0.00 0.00 96 1011.3
20260510065032 58 0 0.0 0.0 0.00 0.00 0.00 95 1011.3
20260510064548 58 0 0.0 0.0 0.00 0.00 0.00 96 1011.5
20260510064029 58 0 0.0 0.0 0.00 0.00 0.00 96 1011.5
20260510063529 58 0 0.0 0.0 0.00 0.00 0.00 96 1011.6
20260510063046 58 0 0.0 0.0 0.00 0.00 0.00 95 1011.6
20260510062532 58 0 0.0 0.0 0.00 0.00 0.00 95 1011.7
20260510062032 58 0 0.0 0.0 0.00 0.00 0.00 94 1011.6
20260510061545 58 0 0.0 0.0 0.00 0.00 0.00 94 1011.5
20260510061032 58 0 0.0 0.0 0.00 0.00 0.00 94 1011.6
20260510060533 59 0 0.0 0.0 0.00 0.00 0.00 95 1011.7
20260510060050 59 0 0.0 0.0 0.00 0.00 0.00 95 1011.8
20260510055539 59 0 0.0 0.0 0.00 0.00 0.00 94 1011.9
20260510055031 59 0 0.0 0.0 0.00 0.00 0.00 94 1011.8
20260510054544 59 0 0.0 0.0 0.00 0.00 0.00 95 1011.9
20260510054032 59 0 0.0 0.0 0.00 0.00 0.00 95 1012.0
20260510053531 59 0 0.0 0.0 0.00 0.00 0.00 95 1012.0
20260510053050 59 0 0.0 0.0 0.00 0.00 0.00 95 1012.0
20260510052531 59 0 0.0 0.0 0.00 0.00 0.00 95 1012.0
20260510052032 59 0 0.0 0.0 0.00 0.00 0.00 95 1012.1
20260510051602 59 0 0.0 0.0 0.00 0.00 0.00 94 1012.0
20260510051032 59 0 0.0 0.0 0.00 0.00 0.00 94 1012.1
20260510050532 59 0 0.0 0.0 0.00 0.00 0.00 94 1012.1
20260510050059 59 0 0.0 0.0 0.00 0.00 0.00 94 1012.1
20260510045531 59 0 0.0 0.0 0.00 0.00 0.00 94 1012.1
20260510045031 59 0 0.0 0.0 0.00 0.00 0.00 94 1012.1
20260510044547 59 0 0.0 0.0 0.00 0.00 0.00 94 1012.1
20260510044033 59 0 0.0 0.0 0.00 0.00 0.00 94 1012.1
20260510043532 59 0 0.0 0.0 0.00 0.00 0.00 93 1012.0
20260510043046 60 0 0.0 0.0 0.00 0.00 0.00 93 1012.0
20260510042530 60 0 0.0 0.0 0.00 0.00 0.00 92 1012.0
20260510042034 60 0 0.0 0.0 0.00 0.00 0.00 92 1012.0
20260510041543 60 0 0.0 0.0 0.00 0.00 0.00 92 1012.0
20260510041032 60 0 0.0 0.0 0.00 0.00 0.00 92 1011.8
20260510040533 61 0 0.0 0.0 0.00 0.00 0.00 92 1011.9
20260510040046 61 0 0.0 0.0 0.00 0.00 0.00 92 1011.7
20260510035531 61 0 0.0 0.0 0.00 0.00 0.00 92 1011.8
20260510035029 61 0 0.0 0.0 0.00 0.00 0.00 91 1011.9
20260510034543 61 0 0.0 0.0 0.00 0.00 0.00 91 1011.8
20260510034029 61 0 0.0 0.0 0.00 0.00 0.00 91 1011.7
20260510033534 61 0 0.0 0.0 0.00 0.00 0.00 91 1011.8
20260510033053 61 0 0.0 0.0 0.00 0.00 0.00 90 1011.7
20260510032533 61 0 0.0 0.0 0.00 0.00 0.00 90 1011.7
20260510032032 62 0 0.0 1.0 0.00 0.00 0.00 90 1011.6
20260510031548 62 0 0.0 2.0 0.00 0.00 0.00 89 1011.6
20260510031029 62 0 0.0 2.0 0.00 0.00 0.00 89 1011.6
20260510030530 62 0 0.0 0.0 0.00 0.00 0.00 89 1011.5
20260510030044 62 0 0.0 0.0 0.00 0.00 0.00 88 1011.6
20260510025532 63 0 0.0 0.0 0.00 0.00 0.00 87 1011.6
20260510025030 63 0 0.0 0.0 0.00 0.00 0.00 87 1011.5
20260510024545 63 0 0.0 0.0 0.00 0.00 0.00 86 1011.6
20260510024034 64 0 0.0 0.0 0.00 0.00 0.00 86 1011.4
20260510023533 64 0 0.0 0.0 0.00 0.00 0.00 86 1011.5
20260510023046 64 0 0.0 0.0 0.00 0.00 0.00 86 1011.5
20260510022534 64 0 0.0 1.0 0.00 0.00 0.00 86 1011.4
20260510022033 64 0 0.0 1.0 0.00 0.00 0.00 86 1011.3
20260510021636 64 0 0.0 3.0 0.00 0.00 0.00 85 1011.4
20260510021034 64 0 0.0 3.0 0.00 0.00 0.00 85 1011.3
20260510020533 64 0 0.0 0.0 0.00 0.00 0.00 85 1011.3
20260510020050 64 0 0.0 0.0 0.00 0.00 0.00 84 1011.2
20260510015536 64 0 0.0 0.0 0.00 0.00 0.00 84 1011.1
20260510015033 64 0 0.0 0.0 0.00 0.00 0.00 83 1011.1
20260510014553 64 0 0.0 0.0 0.00 0.00 0.00 82 1010.9
20260510014033 65 0 0.0 0.0 0.00 0.00 0.00 82 1011.0
20260510013534 65 0 0.0 0.0 0.00 0.00 0.00 81 1010.9
20260510013053 65 0 0.0 0.0 0.00 0.00 0.00 80 1010.8
20260510012535 65 0 0.0 0.0 0.00 0.00 0.00 80 1010.7
20260510012037 66 0 0.0 0.0 0.00 0.00 0.00 79 1010.8
20260510011549 66 0 0.0 0.0 0.00 0.00 0.00 78 1010.9
20260510011034 66 0 0.0 0.0 0.00 0.00 0.00 78 1010.9
20260510010533 67 0 0.0 0.0 0.00 0.00 0.00 78 1010.9
20260510010055 67 0 0.0 1.0 0.00 0.00 0.00 77 1010.9
20260510005533 67 0 0.0 4.0 0.00 0.00 0.00 77 1010.8
20260510005033 67 0 0.0 4.0 0.00 0.00 0.00 76 1010.8
20260510004548 67 232 0.0 2.0 0.00 0.00 0.00 76 1010.9
20260510004033 68 0 0.0 0.0 0.00 0.00 0.00 74 1010.7
20260510003533 68 0 0.0 0.0 0.00 0.00 0.00 74 1010.4
20260510003045 68 0 0.0 2.0 0.00 0.00 0.00 73 1010.4
20260510002534 68 0 0.0 2.0 0.00 0.00 0.00 73 1010.3
20260510002032 69 0 0.0 2.0 0.00 0.00 0.00 72 1010.4
20260510001549 69 0 0.0 1.0 0.00 0.00 0.00 71 1010.3
20260510001034 69 0 0.0 0.0 0.00 0.00 0.00 70 1010.2
20260510000533 69 0 0.0 0.0 0.00 0.00 0.00 70 1010.2
20260510000043 70 0 0.0 0.0 0.00 0.00 0.00 70 1010.0
20260509235532 70 0 0.0 1.0 0.00 0.00 0.00 70 1010.0
20260509235030 70 0 0.0 1.0 0.00 0.00 0.00 70 1009.9
20260509234545 70 0 0.0 1.0 0.00 0.00 0.00 69 1009.8
20260509234034 70 0 0.0 2.0 0.00 0.00 0.00 68 1009.8
20260509233533 71 0 0.0 3.0 0.00 0.00 0.00 68 1009.7
20260509233048 71 0 0.0 3.0 0.00 0.00 0.00 68 1009.7
20260509232533 71 0 0.0 3.0 0.00 0.00 0.00 67 1009.7
20260509232032 71 0 0.0 1.0 0.00 0.00 0.00 66 1009.7
20260509231547 72 0 0.0 2.0 0.00 0.00 0.00 66 1009.6
20260509231032 72 0 0.0 3.0 0.00 0.00 0.00 65 1009.7
20260509230535 72 232 0.0 3.0 0.00 0.00 0.00 65 1009.7
20260509230052 72 204 1.0 3.0 0.00 0.00 0.00 65 1009.7
20260509225534 72 0 0.0 3.0 0.00 0.00 0.00 66 1009.8
20260509225032 72 0 0.0 3.0 0.00 0.00 0.00 64 1009.8
20260509224549 73 0 0.0 3.0 0.00 0.00 0.00 64 1009.8
20260509224033 73 251 0.0 7.0 0.00 0.00 0.00 65 1009.7
20260509223535 73 211 0.0 7.0 0.00 0.00 0.00 65 1009.5
20260509223048 73 0 0.0 5.0 0.00 0.00 0.00 65 1009.5
20260509222533 73 235 1.0 5.0 0.00 0.00 0.00 64 1009.6
20260509222039 73 32 0.0 8.0 0.00 0.00 0.00 64 1009.6
20260509221711 73 184 0.0 8.0 0.00 0.00 0.00 64 1009.5
20260509221034 73 223 1.0 5.0 0.00 0.00 0.00 62 1009.7
20260509220531 74 224 0.0 7.0 0.00 0.00 0.00 65 1009.5
20260509220048 74 0 1.0 7.0 0.00 0.00 0.00 63 1009.4
20260509215534 74 0 0.0 2.0 0.00 0.00 0.00 65 1009.4
20260509215032 74 0 0.0 3.0 0.00 0.00 0.00 63 1009.4
20260509214549 74 0 0.0 3.0 0.00 0.00 0.00 63 1009.6
20260509214032 74 228 0.0 3.0 0.00 0.00 0.00 62 1009.5
20260509213533 74 0 1.0 3.0 0.00 0.00 0.00 64 1009.6
20260509213105 74 0 0.0 4.0 0.00 0.00 0.00 62 1009.5
20260509212532 74 246 0.0 5.0 0.00 0.00 0.00 64 1009.5
20260509212033 74 180 0.0 5.0 0.00 0.00 0.00 61 1009.5
20260509211559 74 313 0.0 3.0 0.00 0.00 0.00 64 1009.4
20260509211034 74 313 1.0 4.0 0.00 0.00 0.00 62 1009.4
20260509210534 74 0 0.0 4.0 0.00 0.00 0.00 62 1009.4
20260509210051 74 94 0.0 4.0 0.00 0.00 0.00 65 1009.4
20260509205533 74 0 0.0 3.0 0.00 0.00 0.00 67 1009.4
20260509205033 74 0 0.0 6.0 0.00 0.00 0.00 64 1009.3
20260509204543 74 224 0.0 6.0 0.00 0.00 0.00 62 1009.3
20260509204034 75 0 0.0 3.0 0.00 0.00 0.00 63 1009.3
20260509203533 75 238 0.0 5.0 0.00 0.00 0.00 60 1009.4
20260509203053 75 0 1.0 5.0 0.00 0.00 0.00 59 1009.5
20260509202537 74 233 2.0 5.0 0.00 0.00 0.00 61 1009.4
20260509202035 74 0 0.0 8.0 0.00 0.00 0.00 63 1009.4
20260509201544 74 193 1.0 8.0 0.00 0.00 0.00 60 1009.4
20260509201033 75 0 0.0 2.0 0.00 0.00 0.00 61 1009.3
20260509200534 75 0 0.0 3.0 0.00 0.00 0.00 61 1009.4
20260509200051 75 189 1.0 4.0 0.00 0.00 0.00 59 1009.2
20260509195533 75 71 1.0 4.0 0.00 0.00 0.00 61 1009.3
20260509195029 75 246 0.0 9.0 0.00 0.00 0.00 60 1009.4
20260509194556 75 86 1.0 9.0 0.00 0.00 0.00 60 1009.4
20260509194029 76 0 0.0 7.0 0.00 0.00 0.00 58 1009.5
20260509193533 76 282 0.0 7.0 0.00 0.00 0.00 59 1009.6
20260509193047 77 0 1.0 7.0 0.00 0.00 0.00 55 1009.7
20260509192533 78 205 1.0 4.0 0.00 0.00 0.00 54 1009.7
20260509192031 79 0 0.0 5.0 0.00 0.00 0.00 53 1009.8
20260509191557 79 0 1.0 5.0 0.00 0.00 0.00 54 1009.7
20260509191032 78 121 1.0 6.0 0.00 0.00 0.00 55 1009.9
20260509190532 77 273 1.0 6.0 0.00 0.00 0.00 55 1010.0
20260509190048 77 128 1.0 5.0 0.00 0.00 0.00 54 1010.0
20260509185533 77 0 1.0 7.0 0.00 0.00 0.00 54 1010.1
20260509185035 78 0 0.0 7.0 0.00 0.00 0.00 56 1010.1
20260509184544 78 223 0.0 3.0 0.00 0.00 0.00 57 1010.2
20260509184032 77 17 1.0 3.0 0.00 0.00 0.00 56 1010.2
20260509183533 77 207 1.0 6.0 0.00 0.00 0.00 56 1010.1
20260509183049 76 141 1.0 6.0 0.00 0.00 0.00 54 1010.4
20260509182533 76 0 1.0 7.0 0.00 0.00 0.00 55 1010.5
20260509182032 77 0 1.0 7.0 0.00 0.00 0.00 53 1010.5
20260509181600 77 216 1.0 3.0 0.00 0.00 0.00 57 1010.6
20260509181035 76 180 0.0 6.0 0.00 0.00 0.00 58 1010.6
20260509180534 76 112 1.0 6.0 0.00 0.00 0.00 57 1010.7
20260509180058 76 244 0.0 5.0 0.00 0.00 0.00 56 1010.8
20260509175537 76 279 0.0 7.0 0.00 0.00 0.00 58 1010.8
20260509175033 75 258 0.0 7.0 0.00 0.00 0.00 56 1010.9
20260509174547 75 146 1.0 5.0 0.00 0.00 0.00 56 1010.9